Location: Burla
(50.9568°N, 10.4983°E)
Time: 00:52:34
(UTC+00:00)

Cosmos 1484 Rocket - Pass Details

Date: 18 January 2026
Orbit: 439 x 468 km, 97.6° (Epoch: 6 February)

Event Time Altitude Azimuth Distance (km) Brightness Sun altitude
Rises 05:03:12 0° 18° (NNE) 2,458 6.3 -19.7°
Reaches altitude 10° 05:05:17 10° 23° (NNE) 1,586 5.3 -19.4°
Maximum altitude 05:08:36 50° 100° (E) 586 3.3 -18.9°
Drops below altitude 10° 05:11:55 10° 177° (S) 1,589 5.3 -18.3°
Sets 05:13:59 0° 183° (S) 2,463 6.2 -18.0°
